Theta_e
371 372 372 372 372 372 371 372 371 370 369 368 367 367 367 366 363 361 362 358 356 354 352 350 350 349 348 348 347 346 348 348 348 349 349 347 348 347 345 345 343 343 343 342 342 342 342 341 341 341 342 341 342 340 340 341 342 343 345 344 342 340 338 336 332 332 336 339 336 335 337 339 336 339 338 338 339 339 341 341 341 340 340 340 341
371 372 373 372 371 371 372 372 371 371 369 369 368 367 367 365 365 364 360 359 358 355 353 348 349 349 348 348 348 346 350 350 346 347 346 345 346 344 343 344 344 344 342 341 341 342 341 341 341 342 343 342 341 340 340 338 338 338 340 341 341 341 343 339 337 334 332 337 336 339 337 337 335 339 336 336 336 338 337 339 339 342 340 340 339
369 373 371 372 371 372 371 372 372 370 369 368 366 365 364 364 364 362 359 358 359 356 351 348 349 349 349 349 347 348 348 348 347 346 346 345 345 343 342 342 343 341 340 341 341 342 341 341 340 341 341 340 340 340 340 340 340 338 337 338 337 337 338 338 337 334 332 332 336 334 336 336 335 336 338 338 339 339 337 338 337 338 340 339 337
367 371 371 371 372 372 371 371 370 368 366 367 365 364 362 362 363 362 359 357 357 355 352 348 348 350 348 349 347 344 346 347 346 346 345 344 344 343 343 343 342 341 340 340 340 341 340 340 340 340 340 339 339 339 340 340 340 339 338 338 339 339 342 343 340 336 332 331 335 335 336 336 337 338 338 338 335 337 336 336 338 338 338 338 338
366 370 370 368 369 371 370 369 369 368 367 365 365 362 360 360 362 360 359 358 357 353 351 348 349 350 347 346 346 346 346 345 345 343 343 344 344 343 343 343 342 342 341 342 341 342 341 340 340 340 340 338 339 338 339 340 338 337 336 337 338 338 340 340 340 339 337 335 335 338 337 337 338 338 338 335 335 336 336 335 335 335 336 335 335
364 368 369 367 368 369 370 368 368 369 368 365 363 362 359 361 361 361 362 358 356 352 348 346 349 350 348 348 347 346 345 345 346 344 342 344 345 343 342 341 341 341 341 341 341 341 341 342 341 341 339 338 338 338 339 338 338 337 337 338 339 340 340 341 341 340 337 335 335 333 336 334 334 336 339 338 334 331 333 335 335 335 335 333 332
369 369 369 367 367 369 369 369 369 369 369 366 364 361 360 360 360 359 359 358 355 350 347 348 351 350 347 345 344 344 343 345 346 346 344 344 344 343 341 341 342 342 342 341 340 339 340 341 342 341 340 340 339 339 338 338 338 339 339 337 337 339 338 338 339 338 337 336 335 334 332 335 336 333 336 339 336 333 330 330 331 335 335 333 332
370 370 369 368 369 369 370 370 371 370 369 368 365 362 362 362 362 361 359 355 353 350 347 348 350 349 344 343 343 343 345 346 347 346 345 345 343 341 342 343 342 342 342 341 340 338 338 339 338 338 340 341 340 340 340 340 342 342 343 342 338 336 335 336 336 336 335 335 331 331 334 334 332 333 336 335 334 333 334 332 328 328 331 334 335
368 368 370 369 370 371 372 372 372 370 368 367 365 364 363 363 363 362 360 357 354 351 349 349 347 344 344 343 344 344 345 344 344 345 343 343 342 343 344 343 342 340 340 340 340 339 341 340 338 338 340 342 345 344 342 343 341 338 338 338 337 336 335 334 333 332 331 332 332 333 331 330 331 331 328 330 327 327 331 331 329 331 332 330 333
368 369 369 370 371 373 373 373 371 370 368 366 366 365 364 364 362 362 360 357 355 352 351 345 344 341 342 342 343 343 344 343 341 335 339 344 344 343 342 343 342 341 341 340 338 338 340 340 341 343 346 346 346 346 342 340 338 339 340 339 337 336 334 333 332 331 330 328 328 329 328 326 327 330 327 328 332 335 333 334 331 330 331 329 329
368 368 369 371 373 373 372 372 370 368 367 366 367 365 364 363 363 362 360 359 356 353 348 344 342 339 341 342 344 344 343 344 332 330 332 336 343 344 341 342 343 343 341 341 338 340 340 341 341 343 347 344 343 342 342 338 336 333 331 331 334 338 335 332 331 332 330 328 328 328 326 326 327 329 328 329 332 334 333 333 330 327 325 322 321
368 369 372 373 372 372 371 371 369 367 365 364 363 363 363 362 362 362 359 357 355 351 345 344 341 342 343 340 339 339 339 336 327 329 330 331 338 343 341 340 339 340 341 339 340 341 341 340 340 341 341 343 344 340 341 335 331 331 330 330 329 327 329 333 330 329 330 329 328 328 327 327 327 329 329 328 328 329 330 329 328 326 325 324 323
370 371 372 373 372 371 371 369 367 366 364 363 363 360 360 360 359 358 356 356 354 349 347 345 343 339 339 341 338 338 343 331 326 326 328 327 328 336 339 339 338 338 339 341 341 343 344 343 342 344 345 339 341 343 343 343 336 330 329 329 328 326 324 323 324 333 333 329 328 328 330 330 328 329 332 332 334 330 329 326 326 326 326 323 323
371 372 372 371 371 370 368 366 366 364 364 363 361 361 359 359 358 357 356 356 351 345 344 340 338 342 341 340 340 340 345 328 324 323 324 324 325 331 338 338 339 339 340 341 341 343 346 347 346 343 345 342 344 343 343 341 340 340 340 339 339 336 326 321 320 319 325 331 331 328 331 333 329 333 333 335 331 327 325 324 326 325 325 324 327
372 372 371 371 370 369 367 365 363 364 363 361 360 359 358 358 358 358 356 354 351 347 343 342 341 341 341 341 339 338 343 323 322 321 321 320 323 328 339 339 340 340 340 341 343 343 345 346 346 346 348 346 346 343 341 339 337 338 337 334 334 334 333 331 333 334 334 332 332 333 333 333 332 333 333 332 330 329 328 327 327 326 326 326 325
371 372 370 370 369 367 366 364 361 362 360 359 358 357 357 358 356 357 356 353 351 347 343 339 337 341 342 339 340 341 340 321 321 320 319 320 322 337 339 340 340 340 341 341 342 346 346 348 348 347 345 343 342 336 339 341 339 337 335 335 334 333 331 332 328 328 332 331 331 330 330 330 322 329 330 328 328 328 327 326 325 325 322 320 318
370 371 369 370 369 368 366 363 360 360 359 357 356 355 355 355 356 357 354 352 349 347 344 340 345 345 344 344 338 338 339 325 319 318 318 319 324 339 338 337 338 339 341 341 342 344 346 349 346 344 343 342 335 322 327 333 338 335 334 333 332 330 329 331 327 323 323 319 318 318 315 315 316 314 312 312 322 326 327 324 322 321 319 316 317
370 371 370 370 369 368 366 363 359 358 359 357 355 353 354 355 355 355 351 349 347 347 346 343 345 344 341 337 334 335 333 329 316 316 316 317 327 337 338 338 338 340 341 342 343 346 349 344 344 344 341 342 318 319 321 333 335 335 334 331 329 328 328 329 330 336 319 318 317 317 317 317 317 315 315 314 313 316 325 321 323 321 318 318 315
367 369 369 369 368 366 363 361 359 356 355 355 354 353 354 354 354 353 350 350 348 347 344 342 342 341 336 333 333 329 329 333 314 316 315 315 328 340 338 338 338 339 340 341 344 347 347 344 341 340 341 326 313 317 318 329 335 334 333 330 328 327 327 329 327 328 330 330 331 331 330 323 328 331 332 320 317 319 325 326 325 322 319 319 317
369 370 370 368 367 364 362 361 358 355 354 355 355 355 355 353 352 348 348 346 342 342 340 337 338 339 337 336 334 330 332 338 327 315 314 313 320 340 340 339 338 339 341 342 343 345 342 342 341 326 315 313 312 310 312 314 328 331 331 329 327 325 330 330 329 327 327 326 325 326 326 327 325 326 326 325 330 331 328 328 328 327 321 315 315
369 370 368 367 365 362 360 359 356 354 355 354 355 352 351 351 348 346 345 342 339 337 335 335 336 337 337 336 334 333 333 336 337 313 312 312 316 326 342 341 340 340 341 344 343 341 339 337 338 322 312 310 307 306 306 308 314 326 328 328 328 322 320 327 327 326 326 326 325 326 323 324 323 323 322 323 321 321 321 322 320 319 318 315 313
370 369 366 364 362 359 358 358 356 354 355 356 354 352 352 352 349 345 344 342 336 335 334 335 335 336 338 337 335 336 338 339 350 317 313 311 312 316 337 341 341 341 340 343 341 339 339 339 337 324 310 308 306 304 304 307 310 322 327 309 307 313 322 324 326 325 323 322 321 320 321 321 321 321 320 320 320 321 320 320 319 318 317 315 313
367 365 363 362 359 358 357 355 353 354 354 354 353 351 350 348 347 345 342 338 334 332 332 333 335 336 338 339 340 340 344 344 332 329 311 310 309 312 318 332 316 346 340 339 338 339 339 337 332 312 308 303 301 301 303 305 309 318 309 307 310 311 316 323 324 323 322 321 320 320 320 320 320 319 319 319 320 322 319 319 318 317 317 316 317
364 362 360 360 358 357 355 353 353 353 352 353 353 350 346 345 344 342 339 336 334 333 333 333 335 336 336 336 337 338 346 344 332 328 322 311 309 308 310 310 311 333 341 338 339 336 335 336 320 303 300 298 300 302 305 306 316 306 304 308 311 313 320 323 322 322 322 320 319 318 319 319 318 318 318 319 318 320 319 319 318 318 318 318 318
358 357 358 358 356 355 353 352 351 351 351 351 349 347 346 345 342 341 339 338 337 336 336 336 337 337 336 336 338 341 340 341 337 325 318 313 309 307 310 312 313 312 335 336 337 328 313 303 300 301 302 300 301 304 305 306 305 305 306 309 312 320 323 323 322 321 320 319 318 319 318 319 319 319 320 321 321 320 320 318 318 318 317 317 317
356 356 356 355 354 353 351 350 351 350 351 351 348 347 345 342 340 339 339 339 339 339 338 336 336 336 335 339 337 336 338 339 335 329 322 318 315 310 311 313 319 319 321 322 313 309 306 305 304 304 306 309 318 324 326 324 309 310 310 311 319 321 322 323 322 320 319 317 318 317 317 317 317 319 320 320 319 317 316 314 314 313 313 313 313
355 354 354 353 353 351 349 348 347 348 348 347 347 345 343 341 341 340 340 339 340 339 338 337 335 335 335 335 338 339 341 339 335 332 332 330 330 322 321 321 319 318 324 328 317 320 316 319 322 317 316 317 320 319 321 316 316 315 320 320 320 322 322 322 321 320 319 318 317 317 317 317 318 318 317 317 315 314 314 314 311 310 312 312 313
352 352 350 350 349 348 347 347 347 345 345 344 343 344 343 343 342 342 341 341 340 338 338 336 336 335 334 337 339 336 335 337 335 333 331 330 328 327 328 328 326 328 329 332 333 332 328 318 316 326 325 324 323 323 323 325 324 323 323 323 322 323 325 319 319 321 319 317 316 318 317 317 315 315 314 312 310 311 314 312 311 310 311 311 311
350 350 349 347 345 347 347 348 345 345 340 327 320 316 319 331 342 345 342 343 345 340 339 336 337 336 335 336 336 335 335 335 336 324 334 321 328 329 330 330 332 332 324 315 333 332 329 325 326 324 323 323 323 323 323 323 324 323 323 322 322 321 321 320 318 318 318 317 316 315 313 314 314 313 311 309 311 311 314 313 313 311 312 312 310
348 346 345 344 344 343 344 344 344 343 334 327 323 317 305 297 305 333 336 316 306 302 319 337 337 338 336 341 341 337 336 338 313 306 300 297 298 299 299 300 306 319 313 314 326 328 326 323 321 322 322 322 320 321 320 319 320 320 320 318 320 320 319 317 317 316 317 315 314 312 313 313 311 309 308 308 310 310 312 311 311 312 310 309 309
345 344 344 342 341 342 342 342 343 344 335 330 329 327 325 318 297 294 302 304 301 298 299 312 319 325 339 339 322 306 309 303 300 299 297 296 295 296 297 297 298 299 305 326 326 325 323 322 321 321 319 319 319 317 318 318 319 318 317 318 319 318 317 316 315 316 314 312 312 312 312 311 308 307 307 308 308 308 309 311 311 312 310 309 308
346 344 342 341 344 346 344 344 345 341 335 333 331 329 326 324 321 302 295 298 299 296 297 297 302 306 313 322 321 319 305 301 299 298 297 296 295 294 294 294 294 296 297 307 324 324 323 322 320 321 320 318 318 319 318 317 318 317 318 316 316 317 317 316 315 314 313 312 312 312 310 308 307 308 307 306 306 307 308 308 308 308 309 309 308
344 343 344 345 343 343 344 343 342 339 335 332 331 330 329 327 325 323 315 299 296 296 296 297 299 302 302 303 306 308 304 298 297 296 295 294 293 293 293 292 293 295 304 318 321 320 322 322 321 320 319 318 318 318 319 317 317 317 316 316 315 316 318 318 314 314 312 313 312 310 308 307 307 307 306 306 307 307 307 307 308 308 308 307 307
344 343 341 343 343 342 342 341 340 339 335 333 331 332 332 333 332 330 327 325 323 311 302 297 296 298 297 297 297 297 296 296 296 294 294 294 295 297 299 301 291 291 302 323 319 319 320 320 318 319 319 318 318 318 317 317 317 316 316 316 316 316 317 317 315 313 313 312 310 308 307 306 307 306 306 307 307 307 307 307 308 307 307 306 305
344 344 343 342 344 343 342 340 339 339 336 334 333 333 333 333 333 331 329 327 326 324 321 315 302 295 305 300 295 295 295 295 295 294 294 294 296 297 303 320 319 317 317 319 320 320 320 320 319 319 319 319 318 318 317 317 316 316 315 316 316 315 314 313 313 313 312 311 308 307 307 307 306 307 308 306 306 306 307 307 308 307 306 306 306
343 343 343 341 342 342 342 342 341 340 338 337 337 335 334 333 333 331 329 330 329 322 317 314 309 301 296 293 293 293 293 293 293 293 293 294 295 301 318 317 317 316 316 317 317 318 319 320 321 319 320 319 319 318 317 316 316 315 316 315 313 312 312 312 312 313 311 308 305 305 306 308 307 307 307 307 307 306 306 307 306 306 306 306 306
341 341 342 340 341 340 341 341 340 339 334 334 334 335 333 333 332 332 332 330 325 320 317 315 313 312 309 308 300 293 292 293 293 292 293 293 292 308 318 319 319 319 319 320 319 319 318 318 318 318 318 317 317 316 316 315 315 316 312 313 312 311 311 312 309 308 306 304 305 307 308 307 307 308 306 305 305 306 306 306 306 306 306 306 306
340 338 340 341 341 341 341 340 337 332 335 335 336 336 333 334 333 331 329 327 325 322 319 319 317 317 315 313 312 310 303 296 295 296 296 297 304 311 315 318 319 317 319 320 319 319 317 317 318 317 316 316 316 316 315 315 313 313 312 314 313 312 310 311 311 309 308 307 307 308 307 307 307 306 307 305 305 306 305 305 305 306 307 307 306
343 330 328 331 333 337 337 336 336 335 335 335 334 334 331 331 332 331 330 329 327 325 323 322 322 320 316 316 315 313 313 314 315 313 313 313 313 314 314 316 320 318 318 319 319 317 317 316 316 317 316 316 315 315 313 312 312 312 312 311 310 310 310 310 311 310 308 306 307 307 306 306 306 306 306 305 305 305 305 305 306 306 306 306 306
341 340 335 330 334 333 334 334 333 332 332 334 334 333 331 332 332 331 331 329 328 326 325 324 323 322 319 318 315 315 316 316 317 316 315 313 313 314 315 318 319 317 318 318 316 317 316 316 316 315 315 314 314 312 312 312 312 311 311 310 310 310 311 311 309 307 306 307 306 306 306 306 306 306 305 305 305 305 306 306 306 306 307 306 306
342 339 337 331 332 335 336 333 332 333 332 332 333 333 333 334 334 332 331 329 328 326 325 326 324 323 320 317 306 310 321 318 317 317 316 315 315 317 319 319 318 317 317 316 316 316 316 316 315 314 313 313 313 312 312 311 310 310 310 309 309 308 309 310 309 306 306 307 306 306 306 306 305 304 303 305 304 304 306 306 306 306 306 307 306
341 339 335 335 337 336 334 332 334 333 334 333 334 334 333 333 333 332 331 329 327 327 326 326 326 324 314 303 301 302 317 319 319 320 319 318 319 319 318 319 319 319 317 315 316 315 315 315 314 313 313 312 311 311 310 310 309 309 308 308 308 307 308 307 307 307 307 306 306 306 306 305 304 304 305 303 306 306 305 305 306 306 307 306 306
337 337 337 336 336 336 334 334 335 334 334 333 333 334 332 333 332 330 328 328 327 326 326 327 328 323 315 305 305 302 315 320 321 321 320 319 319 318 318 317 317 317 317 315 315 315 315 314 313 312 312 312 312 311 309 309 309 308 306 306 306 306 306 306 305 305 306 306 306 306 305 305 305 305 305 306 306 306 305 306 306 306 306 306 306
332 335 334 335 336 333 334 336 334 334 333 333 334 332 333 333 331 328 327 328 327 326 326 327 326 323 319 312 309 310 315 318 321 321 320 318 318 317 317 317 317 316 316 315 315 315 314 314 313 313 313 312 312 312 310 309 308 306 305 304 304 303 303 302 303 305 306 305 304 304 304 305 305 305 305 305 305 304 305 306 306 306 306 306 306
331 330 330 332 335 335 333 332 331 331 329 330 330 330 328 328 328 328 328 327 327 326 326 327 325 324 320 319 319 318 318 320 321 320 319 318 318 317 317 317 317 317 315 315 315 315 314 313 313 313 313 312 311 310 309 308 307 306 304 304 304 302 303 304 304 304 304 304 304 306 305 304 305 305 305 305 305 305 305 306 306 306 305 305 305
329 331 332 332 330 329 330 331 329 330 328 327 327 326 326 326 327 327 325 327 325 327 327 327 325 323 321 321 321 320 320 320 321 320 319 318 318 318 317 317 317 316 315 315 315 315 314 314 313 312 312 311 311 310 309 307 305 305 306 305 304 304 304 305 305 304 304 305 304 305 305 305 305 305 305 305 305 305 306 307 307 306 305 305 305
332 332 331 330 329 330 330 331 328 327 329 328 328 328 326 328 326 326 324 325 325 324 326 326 326 326 323 322 321 321 320 320 320 319 320 319 319 318 317 317 316 316 315 315 317 314 314 313 313 312 312 311 311 310 308 306 306 306 306 305 306 305 304 303 302 303 303 304 305 305 305 304 304 305 305 306 305 305 306 306 306 305 305 305 305
330 331 330 328 329 329 330 329 328 327 327 327 327 326 327 330 331 328 326 325 325 325 327 325 324 323 324 325 322 321 322 320 320 320 319 319 319 318 318 318 316 315 315 315 315 314 314 314 313 312 312 311 311 310 308 306 306 307 306 307 306 302 298 297 302 302 301 300 300 300 302 303 305 306 306 305 306 306 306 306 305 304 304 305 305
329 328 327 329 328 328 329 327 327 326 326 329 328 325 325 325 326 326 327 326 326 326 327 326 325 325 323 322 322 321 321 320 320 320 319 319 319 319 319 318 317 316 315 314 314 314 314 314 313 313 312 312 310 309 309 307 306 306 307 304 297 290 287 289 295 298 294 297 299 302 304 306 306 306 306 306 306 306 306 306 305 304 304 305 305
329 329 329 328 328 327 326 326 326 328 328 327 326 327 324 324 325 326 323 324 326 325 324 323 323 325 324 322 322 323 322 320 319 318 319 319 319 319 318 317 317 315 315 315 314 314 314 314 314 313 312 312 311 311 308 308 306 306 306 299 290 287 286 285 287 288 297 298 299 301 302 303 305 306 306 306 307 306 304 303 303 304 304 305 304
329 329 327 326 325 325 326 327 325 325 325 324 325 325 322 322 323 322 322 321 320 320 319 320 320 320 320 320 320 319 319 319 319 319 319 319 318 318 318 317 316 316 315 315 315 315 314 314 313 312 312 311 311 310 309 308 308 307 296 290 288 288 287 290 297 290 288 291 297 299 301 303 305 306 306 306 306 305 302 302 304 304 305 304 304
Wind_Speed
18 16 15 15 16 16 15 15 16 14 15 15 14 13 13 13 13 12 12 12 13 13 13 12 12 12 13 11 11 10 10 10 8 8 6 5 4 5 5 6 7 6 6 6 5 5 5 5 5 4 4 5 5 5 5 5 5 6 6 6 6 6 6 7 8 9 9 6 7 7 7 8 8 7 8 8 8 7 8 9 10 10 10 9 10
17 16 16 15 17 16 16 15 16 14 16 15 15 15 14 13 13 12 14 13 14 15 15 13 12 13 12 12 12 11 8 8 11 9 10 9 7 5 6 6 6 5 6 7 6 5 5 6 6 6 6 6 7 6 6 5 6 6 6 6 6 6 5 7 8 8 11 9 8 7 7 8 9 7 9 8 8 7 9 8 8 9 9 9 9
18 16 16 15 17 16 16 16 16 17 17 16 17 16 15 15 14 14 15 15 14 14 15 14 13 13 12 12 12 11 11 10 10 10 9 9 8 8 7 7 7 8 8 8 7 6 6 7 7 6 6 7 7 7 6 6 6 6 7 6 7 8 8 7 8 9 10 10 9 9 8 7 8 8 8 8 8 8 8 8 8 8 8 9 9
18 17 17 17 17 16 16 16 17 18 18 16 18 18 16 15 15 15 16 15 15 14 15 14 15 14 14 13 13 11 11 10 10 10 10 10 8 8 7 6 7 8 8 8 8 7 8 8 8 7 7 7 7 6 6 6 6 6 7 7 7 8 8 7 8 9 9 10 8 9 8 9 8 8 8 7 9 8 8 9 8 9 9 9 9
18 17 17 18 18 17 18 17 18 19 18 17 19 18 17 16 15 17 17 16 15 14 14 14 14 15 14 14 13 12 12 11 11 11 10 9 9 9 8 8 8 8 8 8 8 8 8 9 8 8 7 7 7 6 6 7 6 7 7 7 8 8 7 7 8 7 8 10 10 8 8 9 9 10 9 8 8 9 8 9 9 10 9 10 10
18 17 17 18 17 19 18 18 19 20 19 18 18 17 17 16 16 15 16 17 16 15 16 15 15 16 14 13 13 12 12 12 12 10 10 9 9 10 9 9 9 8 9 9 9 9 9 9 9 8 7 7 6 6 6 7 7 8 9 8 8 7 8 7 7 7 9 10 10 10 8 9 9 9 9 8 9 10 10 9 9 9 8 9 10
16 17 17 18 17 18 18 18 17 18 17 16 15 15 16 16 17 17 17 17 17 16 16 16 14 15 14 14 13 12 12 12 11 11 10 9 9 9 9 9 8 7 8 9 10 11 10 9 8 7 7 7 6 6 7 8 7 8 8 8 8 8 7 7 7 8 8 9 8 8 10 10 8 9 9 9 9 7 9 10 10 7 6 8 9
15 16 17 16 16 17 17 17 16 16 15 14 14 14 15 15 15 15 15 18 17 17 17 16 15 14 14 13 13 12 13 12 12 11 9 8 10 10 9 8 8 8 9 9 11 11 10 10 9 8 8 7 8 8 8 8 7 7 6 5 7 8 9 8 8 8 8 7 8 9 7 7 6 9 9 9 7 7 6 8 10 8 8 7 7
16 17 16 15 15 15 14 14 14 14 14 14 14 14 14 14 14 14 14 16 15 16 16 16 15 13 13 13 14 13 13 12 11 11 12 11 11 10 9 7 6 7 9 10 11 11 10 9 9 8 8 9 7 6 8 6 6 7 6 7 8 8 9 8 9 9 9 9 9 9 9 8 8 7 9 6 6 10 7 7 9 8 7 9 9
15 16 16 15 14 14 14 13 13 13 13 14 14 14 13 13 13 13 14 15 15 14 14 15 16 16 15 15 14 12 12 11 11 16 13 10 11 9 7 6 6 7 8 10 11 10 10 10 9 10 5 5 5 6 7 8 7 7 7 7 8 9 9 9 9 9 9 10 10 10 11 10 10 9 10 10 8 7 7 6 7 7 7 9 10
16 16 15 14 14 14 13 13 13 13 13 12 12 13 13 12 11 10 11 14 15 13 14 17 17 16 17 15 14 13 12 10 15 15 15 14 10 9 8 7 6 5 7 8 10 10 9 9 9 9 8 6 8 7 4 3 6 8 9 9 9 8 9 10 10 9 10 11 11 11 11 11 11 10 9 9 8 7 6 6 8 9 10 11 11
16 15 15 14 14 14 13 14 13 13 12 13 14 13 11 11 11 9 11 14 14 13 14 16 15 14 13 16 17 14 13 13 18 17 15 13 10 8 8 8 6 7 7 10 9 9 9 9 8 7 8 4 6 1 9 10 10 11 11 12 12 12 10 9 9 9 10 11 11 10 10 10 10 9 9 9 8 8 8 9 10 10 11 11 11
15 15 14 14 14 14 13 13 13 12 12 12 11 12 12 12 12 9 11 11 13 12 13 13 13 13 13 15 15 14 12 14 16 15 14 13 12 8 6 7 7 8 9 9 10 9 8 8 8 7 3 8 7 7 7 7 8 11 13 13 13 12 11 13 13 11 10 11 11 11 10 10 10 9 8 8 7 9 9 10 10 10 10 11 11
14 14 14 15 14 14 14 14 14 13 11 10 11 11 12 13 13 9 8 9 11 13 13 14 13 13 13 13 13 13 10 13 15 15 13 14 12 8 9 9 8 8 9 9 9 9 9 8 7 7 3 4 3 5 3 4 6 6 7 8 9 12 14 16 17 18 15 11 10 11 10 8 9 8 9 8 9 10 10 10 10 11 11 12 12
14 14 14 14 13 13 14 12 12 11 10 10 10 12 12 12 10 8 8 10 12 12 13 14 13 13 13 12 12 12 9 16 16 15 14 14 13 12 10 9 8 8 9 10 10 10 9 8 8 8 4 3 4 6 5 4 7 9 11 10 10 11 10 10 11 10 9 9 9 10 10 10 10 9 8 9 10 10 9 11 12 12 13 14 15
14 14 14 14 14 13 13 12 12 10 11 11 12 12 12 11 11 10 8 8 9 10 10 12 13 13 13 14 13 12 9 18 16 17 16 15 15 9 10 9 9 8 9 10 10 8 9 8 6 5 6 6 6 8 6 6 7 8 8 9 9 9 9 8 1 5 9 8 7 9 9 8 7 8 8 7 7 7 9 11 11 11 12 12 13
14 14 14 14 13 13 13 13 12 11 11 11 11 11 11 10 9 7 8 8 9 12 13 13 13 13 14 13 11 8 9 16 17 18 17 16 12 9 10 9 8 9 10 11 10 9 9 7 7 7 7 8 7 10 7 4 5 7 8 8 8 9 9 8 6 7 4 2 1 3 6 10 13 13 13 13 9 8 7 8 9 10 11 12 13
13 13 13 13 12 12 12 12 12 11 11 11 10 10 10 11 10 9 8 8 9 11 13 13 12 12 13 11 10 8 8 14 19 18 17 18 15 11 9 8 9 9 10 11 10 8 7 6 7 6 8 3 9 7 6 4 6 7 7 9 9 9 9 9 6 3 7 5 8 10 11 12 14 15 15 15 15 10 8 10 11 9 10 10 11
13 13 12 12 12 12 12 11 11 11 11 11 10 11 10 9 7 6 7 7 10 11 12 10 9 9 11 10 7 10 9 11 18 18 19 18 13 9 8 8 9 10 10 10 9 7 4 5 9 10 2 9 9 7 3 3 5 6 6 7 9 10 9 10 10 10 6 6 7 7 8 11 12 11 12 19 20 16 13 13 11 10 10 10 13
12 12 12 12 12 11 11 11 11 11 11 10 10 9 8 7 8 8 6 5 5 9 9 8 8 9 9 7 8 14 12 9 17 21 19 16 16 9 7 8 9 10 10 9 8 6 5 3 3 7 11 10 10 8 5 1 3 5 6 7 8 10 8 8 7 7 7 8 9 10 11 12 12 11 10 9 11 15 13 11 10 10 12 14 14
11 12 11 11 12 11 10 10 11 10 10 10 10 9 9 8 9 9 10 9 7 7 7 7 6 7 8 11 13 14 13 12 13 19 16 16 16 12 8 9 9 8 9 7 7 4 2 4 4 7 10 10 9 8 7 5 1 3 5 6 4 5 7 9 9 9 9 9 10 11 10 10 9 10 10 8 11 10 8 9 12 12 12 12 13
10 10 10 10 10 10 9 9 10 9 9 8 10 10 9 9 9 10 10 11 9 8 7 6 7 9 11 10 10 9 10 14 8 12 14 14 13 13 7 9 7 8 7 7 5 3 4 4 6 12 13 11 9 9 7 5 3 3 3 5 7 8 6 8 8 8 9 9 9 11 10 9 10 10 11 12 11 10 10 9 10 12 12 13 13
9 9 9 9 9 9 9 9 8 7 8 9 10 9 8 7 7 8 9 9 8 8 8 7 9 11 8 8 8 11 7 10 14 9 11 12 13 14 13 4 10 4 7 7 6 2 3 2 8 13 10 10 8 7 6 5 5 4 5 7 7 6 8 5 7 8 8 9 9 9 9 9 10 11 11 9 8 8 8 10 12 13 12 12 12
9 8 7 7 8 8 8 8 8 7 8 8 8 9 9 7 7 8 9 9 8 8 10 11 10 9 10 10 9 8 8 8 10 12 10 13 12 12 11 4 4 2 2 4 2 3 3 6 7 11 9 8 6 5 5 6 3 3 4 4 6 7 5 6 7 8 7 8 8 9 10 10 9 9 8 8 8 8 10 11 11 11 11 11 12
11 9 8 8 8 7 7 8 8 7 7 8 8 7 8 8 8 7 9 9 9 10 9 10 9 10 11 10 9 8 9 9 7 7 11 9 8 7 6 7 2 2 2 4 2 6 9 12 12 9 8 6 6 6 7 7 7 4 3 4 6 5 6 7 8 5 6 7 9 10 10 8 7 8 8 8 9 10 10 9 10 10 11 12 12
11 10 8 7 7 7 7 7 8 7 6 6 7 6 7 8 9 10 10 10 11 10 10 9 9 10 9 9 9 9 9 9 8 7 6 7 6 6 6 5 5 3 1 6 10 12 12 12 11 11 9 7 6 5 3 3 7 8 9 9 6 8 9 9 8 7 7 9 9 8 8 8 8 8 9 9 9 9 8 9 9 10 10 10 10
10 9 8 7 6 6 7 7 7 8 8 5 5 7 7 8 9 9 11 11 11 9 8 9 10 11 11 11 10 10 10 9 7 7 7 6 6 5 5 5 5 4 4 6 8 7 10 9 7 5 4 7 5 2 2 9 7 7 6 8 10 10 10 6 6 6 8 7 8 8 7 7 9 9 9 8 8 8 8 8 9 10 10 10 11
10 9 8 7 6 6 7 7 8 6 7 7 7 9 9 9 9 10 11 11 11 10 11 12 12 13 12 11 10 9 9 8 8 8 8 7 8 8 8 8 8 8 8 8 7 7 7 6 6 5 4 5 6 6 7 8 9 9 8 10 10 10 8 2 6 4 5 7 9 8 7 8 9 9 8 8 9 8 8 8 9 10 10 10 11
9 9 8 6 6 6 6 7 7 7 6 7 7 6 5 2 4 6 5 2 3 8 12 12 11 12 12 10 10 9 8 8 8 9 10 10 9 9 10 11 9 8 3 4 7 7 6 5 6 5 5 7 7 7 7 9 9 9 9 8 6 7 9 8 6 7 8 8 7 6 8 9 9 8 9 9 8 8 7 8 8 9 10 10 11
9 9 8 8 8 7 7 8 8 7 8 7 6 7 9 9 9 3 3 7 8 11 3 10 11 10 9 9 5 5 7 6 12 15 12 9 8 10 10 13 11 7 9 7 4 4 6 9 8 6 7 8 7 7 8 7 7 9 8 7 7 7 6 7 7 7 6 4 5 8 8 8 8 8 8 9 8 8 8 8 9 9 10 10 11
7 7 7 7 6 9 8 7 8 7 7 7 6 7 5 8 13 13 9 6 10 13 14 8 7 6 7 7 8 11 16 18 18 15 13 11 10 11 12 13 14 12 9 4 3 5 5 7 8 10 8 8 8 7 6 7 6 6 6 5 6 9 8 6 8 7 4 5 7 8 8 8 8 8 8 8 9 9 9 8 8 8 9 10 11
5 6 6 5 7 3 4 5 6 7 8 6 6 6 6 6 6 11 12 11 12 15 14 14 12 13 11 10 9 5 8 16 19 16 13 13 12 12 12 13 12 12 6 4 3 5 6 7 9 9 9 8 7 6 6 7 6 7 5 6 7 8 8 6 4 1 5 7 8 8 7 7 7 8 8 8 9 9 9 9 9 9 9 9 10
5 5 3 7 6 4 4 5 6 7 8 8 7 6 6 6 7 5 7 12 15 15 16 14 13 13 14 14 11 10 10 10 13 14 14 14 14 13 14 13 11 7 6 2 4 6 7 9 10 8 7 7 7 5 5 6 6 6 7 7 8 8 7 2 3 5 7 8 7 7 7 7 7 7 8 8 8 9 9 9 9 9 9 10 10
3 2 5 6 6 6 6 6 6 7 7 7 7 7 7 6 7 7 6 4 7 11 16 19 17 13 13 14 15 15 15 14 14 14 13 13 12 12 12 8 9 10 5 2 5 7 8 9 8 6 7 7 6 6 6 6 6 7 7 9 8 7 5 3 5 6 7 5 6 6 7 7 6 7 8 8 8 8 9 9 9 9 9 10 11
4 9 7 4 6 7 7 6 7 7 8 8 6 6 6 7 7 7 7 7 6 7 6 8 13 15 9 10 12 12 13 14 14 14 14 13 13 13 11 5 3 2 2 4 5 7 9 9 7 4 5 7 6 3 5 6 6 6 7 8 8 6 5 5 5 5 5 5 6 7 6 7 7 7 7 8 8 9 9 9 9 9 9 10 11
5 6 6 5 5 6 7 7 8 9 9 8 8 7 7 8 7 7 7 7 7 9 8 5 4 9 15 13 10 11 13 13 11 11 11 11 10 8 5 5 5 6 6 7 7 8 7 7 7 7 4 3 3 4 5 6 6 8 8 7 7 6 6 5 4 3 4 5 7 7 7 7 7 7 7 8 9 9 9 9 9 9 10 10 10
5 5 6 6 5 5 5 6 6 8 8 7 7 8 8 7 7 8 8 10 10 9 10 9 8 8 9 6 8 11 12 12 12 12 11 9 5 3 3 4 6 7 7 7 6 4 5 5 5 5 5 6 4 4 5 5 6 7 5 6 7 7 7 5 5 5 6 7 6 6 6 6 6 7 7 8 8 9 9 9 10 10 10 11 12
2 5 6 5 5 6 6 6 8 10 8 6 6 8 8 8 9 9 9 9 10 10 10 10 10 10 9 7 7 6 7 10 13 11 9 7 2 2 5 7 6 6 7 8 4 4 4 5 5 6 6 5 4 4 6 8 7 6 6 6 6 7 5 6 6 5 5 6 6 6 5 6 6 6 7 7 8 9 9 9 10 10 10 10 10
7 11 12 6 2 5 7 7 7 7 6 7 7 7 7 8 9 9 9 9 10 10 10 10 9 9 9 9 8 9 9 7 6 6 5 4 3 5 7 10 7 2 6 4 4 4 4 5 5 6 6 5 5 6 6 6 6 7 5 5 6 6 4 6 4 4 4 5 5 5 5 6 6 6 7 8 8 8 9 10 10 10 10 10 10
5 6 6 6 4 5 6 6 6 6 6 7 7 7 8 8 8 9 10 10 10 9 8 8 8 8 9 10 9 9 8 8 7 7 7 7 7 9 11 9 4 5 5 4 4 5 5 5 6 3 2 2 5 7 5 6 7 6 6 7 7 6 6 5 5 5 5 4 4 5 5 6 6 7 7 7 8 8 10 10 10 10 9 10 11
5 5 7 5 6 6 7 6 7 7 6 6 7 7 7 7 8 8 9 8 9 9 9 9 9 9 10 11 13 11 9 8 8 8 9 9 10 10 7 5 5 5 4 4 3 4 6 6 6 5 2 2 4 5 6 6 7 7 6 7 7 6 6 6 5 5 4 4 5 5 5 5 6 7 8 8 8 9 8 9 9 9 9 10 11
4 6 6 6 5 6 5 6 6 7 7 7 6 6 7 6 6 7 8 8 9 9 9 8 9 9 11 16 15 13 8 7 8 9 9 8 6 6 5 5 2 3 3 6 3 4 4 3 3 4 3 4 6 5 5 6 6 6 6 6 6 6 5 4 4 2 3 4 5 4 5 6 7 7 8 8 8 8 9 9 9 9 9 10 10
6 5 5 5 6 5 6 7 7 7 7 6 6 5 6 6 7 7 7 7 8 8 8 9 8 8 10 13 15 15 6 5 6 8 8 6 5 6 6 5 4 4 4 3 3 3 3 4 4 4 4 4 3 5 5 4 4 5 5 5 5 4 4 4 4 3 3 3 4 5 6 6 6 7 7 7 8 8 8 9 9 9 9 9 10
5 5 5 5 6 6 7 7 7 6 6 6 6 6 6 6 6 6 6 7 7 7 7 8 8 8 9 9 10 8 7 8 8 7 6 6 6 6 6 5 5 5 6 4 2 2 4 4 5 4 3 3 3 2 3 4 5 4 4 4 4 3 3 4 4 3 3 4 5 6 6 6 6 7 7 7 7 8 9 9 9 9 9 9 9
4 5 6 6 6 7 7 7 7 6 8 7 6 6 5 5 5 5 6 6 6 6 6 7 8 8 9 9 10 10 9 9 8 8 6 7 7 7 6 6 5 4 3 2 4 2 3 4 4 4 3 4 4 3 3 4 3 4 4 3 3 2 1 2 3 4 4 5 5 5 6 6 6 7 7 7 8 8 8 8 9 9 9 9 9
2 4 6 6 6 6 6 7 7 7 7 6 6 6 5 5 5 5 5 5 5 6 7 7 8 7 8 8 9 9 9 9 7 7 6 7 7 6 6 6 4 5 5 5 3 4 4 4 4 4 5 4 3 4 4 3 3 4 2 3 3 1 2 3 4 4 5 5 5 5 6 6 6 6 7 7 7 7 8 9 9 8 9 9 9
4 5 5 5 5 5 6 7 6 6 6 6 5 5 4 5 5 4 4 4 5 6 6 6 6 6 8 10 9 9 9 8 8 7 6 6 7 7 7 6 6 6 5 5 3 4 4 4 4 4 3 4 4 4 4 3 4 4 4 3 2 2 5 5 5 5 5 5 5 6 6 6 7 7 7 7 7 7 8 8 8 9 9 9 9
4 4 5 5 6 5 5 5 6 6 6 6 5 4 3 4 3 2 4 5 5 6 6 7 8 8 7 6 8 8 8 8 6 5 7 7 8 8 7 7 7 7 6 6 6 5 5 5 5 4 5 4 5 4 5 4 4 3 3 2 5 7 6 5 4 4 5 6 6 6 6 6 6 7 6 7 7 7 8 8 8 8 8 9 8
4 4 5 5 5 5 5 3 5 5 4 5 2 4 4 5 5 6 3 3 4 4 5 6 6 7 10 8 7 8 7 6 5 7 8 9 8 7 7 7 7 7 7 7 7 6 6 5 6 6 5 6 6 5 5 5 5 4 3 7 8 11 9 6 4 4 7 6 5 6 6 7 6 6 6 7 7 7 7 7 7 8 8 8 8
2 3 3 3 3 4 5 6 5 4 5 6 4 4 5 8 10 8 10 10 8 5 2 3 8 8 7 7 7 6 7 9 9 8 7 7 8 7 8 8 8 8 7 6 7 7 7 6 7 6 6 6 7 6 5 5 5 5 5 9 11 10 9 5 2 3 5 5 6 6 6 6 6 6 6 6 6 6 7 7 8 8 8 8 8
3 1 1 3 3 3 3 2 4 3 4 5 8 8 7 4 2 3 3 4 3 4 5 4 4 6 6 8 9 8 7 6 7 7 7 8 7 8 9 8 8 7 8 8 7 7 7 7 7 7 7 7 6 7 6 6 5 5 11 13 12 10 7 1 1 5 0 5 6 6 6 6 6 6 6 6 6 6 6 8 8 7 8 7 7
Wind_Direction
186 188 189 194 192 191 190 191 194 195 197 198 197 194 195 196 197 198 188 188 179 179 181 183 180 184 183 186 176 190 189 177 173 179 175 180 212 205 215 204 208 221 229 237 230 233 235 248 263 273 275 269 266 269 265 268 266 265 264 266 269 262 263 275 278 284 291 290 290 289 281 281 275 263 267 267 268 265 245 252 261 264 266 269 274
187 187 190 192 193 191 190 190 192 194 196 196 196 193 194 194 195 198 197 191 180 178 181 182 180 183 185 180 184 191 191 174 177 181 180 186 191 201 208 211 210 221 227 234 234 237 242 247 249 255 256 261 267 266 268 267 267 266 261 268 274 270 261 264 264 273 284 293 287 288 286 280 277 270 279 276 276 279 282 278 268 268 267 268 270
187 186 189 190 191 190 190 190 190 194 196 196 197 196 195 193 193 200 200 198 182 180 180 178 176 180 183 181 187 188 190 184 180 180 182 187 192 196 198 200 211 223 225 235 239 237 240 244 247 246 243 248 252 260 264 267 271 275 276 267 261 264 264 259 267 273 276 281 288 290 285 284 282 288 280 281 290 282 276 271 270 268 265 267 270
187 186 188 190 189 188 191 191 193 195 198 197 197 200 198 196 195 200 202 200 183 182 178 175 176 179 181 181 185 189 188 186 183 185 186 188 185 191 196 204 218 228 237 240 239 242 246 248 248 248 248 251 253 260 261 260 263 268 274 272 269 270 267 257 241 253 267 274 278 280 291 296 292 287 291 287 279 278 278 281 273 268 269 267 264
188 187 188 189 189 189 191 192 194 198 199 199 200 201 202 199 196 197 199 199 185 180 176 176 176 178 181 181 182 184 186 188 187 190 193 187 182 182 189 211 223 231 240 245 247 251 257 255 251 245 245 248 251 254 256 264 268 271 271 272 273 271 267 264 262 255 262 268 276 276 281 283 286 287 286 291 294 285 274 266 272 273 273 277 275
187 185 188 190 190 191 192 194 196 198 199 200 201 202 203 200 197 196 196 197 188 181 176 176 177 178 178 176 181 184 184 189 190 184 189 194 190 185 187 207 220 230 237 243 248 247 247 249 248 250 249 248 249 256 267 270 269 267 267 270 275 275 267 265 267 263 263 266 270 277 274 276 282 283 287 285 284 289 289 282 277 276 278 280 278
182 183 187 191 192 192 192 194 197 198 198 199 200 203 203 200 202 205 205 206 192 185 179 177 174 175 171 175 183 184 188 193 187 183 184 193 195 193 193 201 218 229 239 248 253 250 245 244 245 244 251 250 250 250 254 257 259 266 270 277 278 274 275 277 274 274 272 271 271 278 280 274 280 288 283 273 276 281 287 288 283 281 283 282 282
179 181 187 191 192 192 193 194 196 196 196 197 201 201 201 203 205 204 204 212 203 189 180 177 172 173 171 174 180 185 191 191 187 186 190 190 198 199 190 194 210 226 239 247 250 253 247 244 244 238 235 241 241 243 245 253 254 259 268 282 284 280 280 281 282 283 280 277 277 279 273 290 295 279 291 286 293 270 254 278 285 292 293 293 287
179 183 186 190 190 189 189 193 195 195 195 194 196 198 199 201 204 203 203 212 207 193 182 175 170 165 167 171 181 188 191 189 187 189 190 194 203 199 190 183 203 232 247 252 249 244 247 250 250 250 238 228 229 247 255 265 263 271 279 281 281 283 284 283 281 278 277 279 283 284 281 271 276 288 280 280 274 279 284 284 282 283 288 288 274
179 182 185 188 187 185 187 189 191 192 193 196 196 196 197 201 206 204 207 212 211 194 181 175 170 168 170 175 181 186 189 191 186 190 185 185 193 197 187 178 207 234 245 246 246 245 243 245 246 246 243 232 218 220 233 235 232 254 267 270 273 276 276 278 280 280 283 284 284 288 288 285 280 269 281 286 277 273 289 290 289 290 282 271 274
179 182 183 184 183 183 185 187 185 190 194 200 200 197 199 204 211 202 198 210 214 197 180 177 174 173 173 165 178 193 191 189 182 191 185 181 187 191 186 187 198 225 243 254 255 249 247 244 250 244 227 217 224 226 254 296 269 244 243 246 252 260 270 272 272 279 284 286 287 285 287 291 292 295 290 291 285 283 278 275 275 283 284 290 292
177 180 181 180 182 181 185 188 189 190 192 200 212 210 199 206 215 205 199 204 214 206 181 178 173 170 174 180 186 186 192 179 179 186 183 178 184 190 197 198 205 221 231 246 247 248 247 247 248 249 254 278 78 328 262 253 254 254 246 244 244 243 240 250 265 275 278 286 287 285 288 289 294 293 292 293 293 289 284 287 288 289 289 287 288
176 179 180 179 181 183 185 189 188 188 191 197 202 215 215 211 212 202 198 200 205 188 180 172 173 180 185 185 184 184 191 162 175 177 177 179 188 202 209 215 215 225 232 236 246 246 246 245 247 249 121 114 183 190 218 249 269 263 255 249 245 238 228 230 237 247 268 266 270 275 274 282 285 284 292 302 302 291 294 290 291 290 287 287 285
175 177 179 184 183 184 194 196 197 199 188 193 204 207 213 215 211 197 193 195 194 190 185 180 183 186 186 186 183 182 185 148 169 175 180 187 186 192 224 220 219 231 241 245 245 247 244 242 245 251 156 157 201 247 247 237 251 263 262 250 242 234 222 227 231 232 234 250 262 270 271 275 275 292 294 293 294 298 299 296 297 293 291 287 291
173 177 181 181 182 184 189 190 198 190 182 193 205 213 214 210 198 199 204 196 198 196 185 181 181 186 183 180 186 181 170 157 169 171 178 186 185 194 223 223 225 228 240 245 247 249 251 248 247 248 238 221 196 206 235 265 272 254 250 264 267 275 272 255 241 233 222 230 248 260 270 269 280 289 296 298 292 293 297 298 294 289 289 289 284
172 176 179 182 183 184 180 187 194 191 195 200 206 211 214 209 205 202 210 202 195 196 192 184 180 181 181 182 176 179 158 158 167 176 180 191 184 197 218 222 224 232 238 244 245 248 250 248 241 234 243 250 215 217 235 235 243 260 271 267 273 276 278 277 277 290 287 286 270 282 293 324 335 298 290 293 295 287 286 285 288 287 285 283 285
174 175 178 180 180 179 179 182 189 192 199 200 204 211 214 204 205 202 206 203 190 196 204 187 181 179 181 180 172 176 160 167 170 180 182 187 181 210 217 219 221 228 237 240 242 244 240 224 234 240 239 256 165 159 150 190 246 263 265 272 275 282 285 294 218 206 154 152 320 273 269 269 272 272 265 255 244 264 277 278 268 275 283 286 287
172 172 175 176 176 173 173 177 186 193 196 200 201 210 214 211 208 198 200 200 196 200 209 199 180 181 183 171 170 169 188 174 174 178 184 185 190 205 210 214 221 226 233 238 236 237 229 218 228 246 259 243 134 140 152 190 240 259 268 274 282 283 288 292 294 174 169 195 222 233 237 245 248 251 255 257 253 234 229 235 257 277 276 280 283
170 172 172 171 170 170 173 174 184 190 197 201 203 206 204 200 197 176 181 203 209 206 206 198 180 178 180 171 184 193 207 167 173 178 190 187 191 205 210 218 221 227 231 236 231 223 211 216 222 236 224 114 128 132 164 221 253 260 275 281 279 285 287 296 298 297 272 250 248 256 250 240 242 243 239 234 239 230 222 236 255 267 278 275 287
167 166 165 164 166 168 169 171 182 190 196 198 200 202 196 195 175 165 163 180 180 191 191 183 180 185 181 160 211 222 210 182 180 183 189 182 188 195 206 221 228 230 231 232 226 202 221 253 216 160 117 139 143 152 168 244 281 280 282 284 285 285 330 334 322 321 311 293 289 289 282 286 282 277 278 260 227 217 223 232 241 252 266 288 297
158 156 158 159 161 165 167 171 180 189 192 196 196 198 200 188 166 156 179 193 181 165 173 168 167 192 194 201 207 204 204 205 179 185 177 178 188 194 208 218 229 229 228 225 227 211 155 247 271 155 152 154 155 157 160 169 308 301 277 275 324 355 331 299 300 289 284 287 279 275 279 280 291 294 299 292 291 294 290 279 289 295 297 294 298
147 148 153 155 157 163 163 167 184 190 193 192 192 197 195 185 178 178 195 200 172 169 167 186 189 205 211 204 207 206 198 211 150 171 174 177 178 193 218 219 234 224 227 232 215 202 220 219 234 172 165 155 154 158 153 152 175 243 293 20 354 344 325 291 279 272 270 282 287 290 298 301 304 303 288 295 321 323 319 310 307 306 303 299 295
136 141 147 155 155 159 161 169 182 183 190 193 197 192 170 168 163 159 184 170 167 168 178 189 212 217 207 208 198 201 158 109 133 150 156 160 181 192 218 238 4 275 226 228 239 262 274 200 113 134 134 135 138 143 150 156 198 241 280 304 308 319 294 262 264 279 286 285 295 293 292 291 281 284 311 323 300 298 305 304 303 299 295 291 285
126 130 143 155 156 162 164 173 181 190 193 188 184 171 170 166 160 168 172 166 173 180 197 203 207 203 205 206 195 177 151 137 134 140 161 172 177 193 205 111 34 3 257 233 251 252 216 112 112 112 115 128 140 163 175 198 249 26 336 266 267 272 261 266 256 262 275 285 283 288 279 278 301 311 295 299 304 305 302 297 292 288 286 289 288
128 133 150 161 166 168 169 174 182 190 188 184 182 169 169 178 170 173 188 182 184 195 199 204 202 201 202 189 172 172 172 148 132 136 148 152 157 160 160 180 159 32 227 239 82 82 95 112 121 127 135 163 175 197 201 205 216 226 264 252 243 241 237 248 259 256 251 255 261 262 290 317 301 289 297 301 304 299 288 287 289 288 289 286 284
130 136 148 156 167 168 173 176 179 182 181 179 186 172 179 184 184 186 187 195 201 201 196 197 195 203 190 185 176 177 167 148 141 139 125 131 136 139 143 148 173 179 46 82 107 123 130 135 141 148 159 164 185 197 231 160 181 204 220 227 234 238 239 245 258 276 282 281 299 311 298 290 293 304 310 299 287 289 293 289 291 296 298 299 298
129 135 139 152 162 174 176 184 180 179 185 182 187 188 190 187 189 187 192 197 203 202 184 190 194 194 186 187 177 171 162 154 143 139 150 158 166 149 153 162 170 162 199 163 154 154 155 162 155 157 103 158 196 100 88 137 169 195 211 211 225 239 238 268 299 267 265 282 286 283 290 299 304 298 287 290 290 287 292 296 298 300 305 303 300
134 140 145 148 164 174 189 151 164 174 176 190 201 196 188 188 195 196 198 197 203 200 193 192 191 193 187 180 172 166 172 168 156 160 165 163 166 169 176 184 186 194 191 188 192 185 148 117 131 182 164 189 204 213 210 204 207 205 216 221 223 233 271 248 209 287 293 279 277 282 285 289 290 294 300 299 298 299 300 299 300 301 301 302 298
137 144 152 155 158 172 184 178 189 186 124 75 56 32 9 321 248 195 57 344 268 217 197 194 191 194 187 181 175 175 174 173 179 160 168 172 168 169 184 190 183 186 170 57 180 189 144 166 214 204 205 220 231 222 221 210 219 230 231 230 235 253 246 261 286 263 261 271 279 283 288 291 294 300 299 295 297 300 299 300 301 296 294 293 293
151 158 164 175 166 174 193 181 185 164 125 123 106 83 66 57 23 12 98 12 17 9 326 202 196 192 177 168 163 180 192 171 117 115 109 100 103 105 90 78 69 78 92 67 7 262 223 238 264 244 241 259 259 235 239 247 235 227 240 235 240 267 290 281 278 293 282 270 283 284 289 296 296 298 299 299 299 299 305 301 294 293 294 297 298
167 169 167 192 175 172 183 181 172 161 133 134 127 118 114 54 43 37 38 37 35 42 33 63 98 116 152 143 66 55 95 102 108 114 114 108 102 93 86 86 85 78 58 93 190 233 258 263 268 279 269 264 272 273 262 262 266 277 272 257 204 209 230 264 271 275 296 296 291 290 293 294 298 298 295 299 304 305 302 297 297 297 298 303 304
186 170 180 161 84 122 168 172 164 134 125 130 131 128 118 117 72 39 32 40 54 56 50 45 61 82 90 109 117 60 107 126 131 128 122 108 99 92 83 78 75 74 66 82 205 236 248 251 250 248 261 265 260 264 268 273 277 272 268 262 270 276 281 296 16 310 286 294 289 296 302 296 291 295 300 302 301 298 302 308 308 305 305 305 305
183 172 140 95 116 164 145 146 138 135 130 130 141 135 133 127 120 98 48 49 50 52 51 51 68 85 83 73 73 105 110 102 98 103 105 104 96 91 86 76 71 64 92 115 237 248 244 245 243 260 271 275 275 277 286 278 275 283 287 288 277 283 288 65 84 291 284 278 289 283 281 286 290 298 301 299 302 306 309 305 307 309 309 310 311
193 211 158 153 147 163 150 161 165 138 127 136 149 157 158 163 161 152 138 123 80 55 45 37 26 37 66 89 103 104 108 110 105 97 95 95 98 90 87 80 76 54 52 249 235 237 240 249 262 258 262 268 274 271 276 294 290 276 280 282 284 285 291 280 265 253 258 269 285 302 294 293 308 309 303 304 303 306 307 310 310 313 317 318 314
160 79 75 132 166 167 161 157 163 156 143 149 154 165 168 175 169 166 167 161 150 115 96 47 28 27 48 69 80 92 97 101 102 109 108 108 104 112 105 104 117 159 182 231 250 268 271 271 282 299 266 262 261 300 303 295 299 279 269 271 272 275 269 256 259 279 302 299 290 282 296 310 303 293 297 302 308 309 311 311 314 318 319 315 315
189 163 154 164 179 170 172 175 164 159 157 156 162 162 159 158 164 169 160 149 114 94 83 72 86 78 70 57 63 79 81 81 87 90 97 106 127 137 147 176 191 194 201 199 218 226 248 268 275 277 293 274 279 278 281 275 277 269 268 268 273 267 257 261 269 298 321 304 291 288 291 285 289 303 304 305 307 310 311 315 318 319 316 315 319
182 165 156 180 192 173 159 163 157 144 138 148 148 143 152 157 164 160 151 136 126 135 134 139 128 106 100 100 92 78 82 90 88 82 72 69 26 313 232 217 215 205 201 204 205 230 244 251 258 272 275 272 265 264 265 267 271 274 285 284 287 289 281 295 346 332 300 282 284 287 291 294 303 302 306 309 311 312 313 318 320 316 316 314 308
207 179 195 172 162 143 147 129 113 123 143 159 160 160 163 164 160 156 151 145 141 140 144 147 148 140 141 143 149 124 106 106 99 86 87 85 86 234 253 256 263 294 212 200 213 246 251 257 264 265 268 283 281 275 261 252 251 260 273 261 234 243 238 291 266 251 250 261 270 279 287 300 306 307 309 311 312 312 317 323 319 317 316 314 315
84 61 81 91 143 144 128 133 143 156 151 166 161 164 165 160 154 156 150 147 151 152 153 155 149 141 141 142 134 135 133 126 133 133 140 161 193 225 237 248 241 263 272 250 180 199 249 282 269 258 258 260 278 268 270 291 302 271 262 281 286 285 217 241 251 246 258 275 284 304 308 306 309 312 313 309 310 320 324 316 313 318 320 320 319
132 140 104 106 146 132 146 143 160 165 169 184 173 174 168 171 167 160 156 157 156 148 152 146 143 139 141 148 145 158 151 147 154 158 170 176 198 216 237 236 208 230 265 297 294 267 255 249 262 273 110 194 256 270 275 258 266 272 260 248 258 264 281 299 286 275 277 302 309 301 301 308 314 315 313 310 319 322 308 311 316 319 321 320 319
148 136 138 150 116 137 133 152 161 165 173 187 176 182 179 173 170 166 162 159 152 153 156 157 148 143 156 157 158 161 154 158 170 174 181 190 198 212 221 224 229 233 231 257 286 301 272 260 273 284 247 248 254 251 247 251 252 259 274 281 266 267 270 269 276 279 283 286 292 300 308 315 319 319 313 315 308 298 307 315 319 323 322 323 323
146 147 159 152 151 184 173 170 160 161 174 178 169 170 166 163 158 148 147 146 149 149 151 157 149 157 153 152 152 160 165 174 185 186 187 196 202 199 208 222 261 347 289 257 245 225 265 296 261 258 246 231 239 247 253 256 262 267 266 266 270 265 264 263 272 306 309 289 289 302 319 323 314 299 296 300 304 314 317 320 323 321 326 327 323
151 161 166 158 171 175 157 145 150 159 165 163 159 146 143 145 153 147 152 156 158 161 162 159 144 140 149 156 165 177 192 196 241 202 195 187 188 198 205 213 213 214 238 248 248 258 259 233 225 235 228 237 254 262 271 275 268 264 263 268 276 278 268 275 286 284 282 304 310 329 320 304 304 311 310 307 312 318 319 316 321 326 330 324 326
158 165 156 160 159 159 153 155 155 161 158 134 131 148 157 166 163 169 169 161 166 171 173 165 155 147 151 163 168 182 205 217 239 213 196 187 188 202 206 212 222 197 199 222 256 258 248 235 223 219 219 227 234 220 249 269 281 275 271 276 269 273 285 283 289 309 333 331 330 313 304 309 306 301 304 315 323 320 314 322 326 330 328 326 328
165 158 164 170 166 155 154 153 152 142 128 135 153 143 161 166 166 167 163 165 161 162 157 156 162 155 153 170 180 190 204 220 217 197 199 198 193 203 216 216 206 219 278 290 250 222 251 255 239 226 210 220 208 190 227 244 249 269 270 270 275 271 305 347 349 344 332 317 311 310 311 308 311 305 310 322 318 314 318 328 327 326 327 330 328
152 148 158 158 149 149 147 139 137 146 156 155 145 157 155 164 167 164 164 163 168 167 155 162 164 156 164 174 181 194 202 214 202 196 210 205 208 202 213 222 206 208 230 244 215 200 229 246 236 224 230 233 201 207 226 212 231 240 258 248 243 290 352 15 9 352 333 325 316 313 306 305 303 308 308 307 314 319 321 321 322 331 331 327 328
150 165 158 152 132 131 128 137 155 153 153 147 149 145 154 158 162 169 168 171 172 177 165 168 156 172 183 179 187 191 202 210 223 196 196 206 204 204 209 205 202 219 220 231 223 208 204 226 241 236 211 202 200 208 243 224 207 209 194 210 196 81 56 23 359 338 327 326 321 311 316 308 301 299 308 319 319 316 322 320 329 331 332 326 323
161 145 138 136 135 143 150 163 143 153 163 167 169 154 119 93 65 141 194 167 196 201 186 159 166 196 182 176 189 198 203 213 211 178 177 205 212 215 205 201 210 220 217 217 216 220 209 199 211 210 206 193 208 197 212 228 229 199 208 170 82 80 66 40 357 345 351 332 311 299 292 290 298 305 316 317 310 318 316 326 331 336 330 323 326
166 168 168 170 162 162 172 161 154 196 135 72 69 155 144 159 178 169 153 194 212 214 202 163 161 150 155 182 195 204 209 207 195 213 207 207 209 212 211 214 213 226 227 216 212 216 209 203 193 201 199 195 194 214 212 212 216 203 200 102 101 100 88 53 356 15 326 301 279 282 281 287 297 307 306 303 311 317 321 327 333 330 322 322 329
137 148 159 156 179 187 175 154 178 217 133 136 181 218 198 179 179 190 176 191 193 201 244 165 167 183 185 169 187 200 212 218 215 220 219 216 214 206 209 209 208 225 241 236 227 216 207 202 190 200 199 201 193 197 211 209 205 216 118 109 121 116 110 120 232 318 308 314 311 301 302 297 297 300 308 309 314 322 327 332 325 321 321 321 334
125 95 199 175 182 147 137 197 181 154 157 179 179 191 204 194 179 170 181 163 182 190 190 192 191 198 189 188 194 206 215 226 227 222 222 221 214 211 220 214 206 214 232 238 231 223 211 206 193 197 199 201 200 196 202 201 205 116 115 129 131 125 132 132 124 142 276 300 290 287 280 290 296 298 300 310 326 325 329 313 311 319 321 323 337